UAL988 EDDF-KIAD

Flight info

Callsign UAL988
Flight time N/A
Altitude 36000
Route OBOKA5G/25C OBOKA Z28 DIBIR DCT BUDIP DCT RAVLO Y70 OTBED L60 PENIL M144 GIGTO/N0479F380 M144 BAGSO DCT NEBIN/M083F390 NATD SAXAN/N0471F400 N552A HULTN DCT ENE Q480 KYLOH DCT BAF HYPER9
Aircraft B772/H-SDE2E3FGHIJ5LORVWXY/LB1D1

Departure

Time 2026-04-19 09:46
Airport Frankfurt Main Airport (EDDF)

Arrival

Time N/A
Airport Washington Dulles International Airport (KIAD)
Time Latitude Longitude Altitude Speed Heading
2026-04-19 08:58 50.04604 8.56782 360 ft 0 kts 294°
2026-04-19 09:31 50.04604 8.56783 360 ft 1 kts 294°
2026-04-19 09:32 50.04595 8.56817 367 ft 4 kts 293°
2026-04-19 09:32 50.04585 8.56849 367 ft 4 kts 290°
2026-04-19 09:32 50.04583 8.56885 366 ft 4 kts 237°
2026-04-19 09:32 50.04602 8.56909 369 ft 4 kts 197°
2026-04-19 09:33 50.04613 8.56914 369 ft 3 kts 193°
2026-04-19 09:33 50.04587 8.56904 369 ft 4 kts 193°
2026-04-19 09:33 50.04561 8.56895 366 ft 4 kts 193°
2026-04-19 09:33 50.04541 8.56887 363 ft 0 kts 193°
2026-04-19 09:39 50.04524 8.56881 366 ft 7 kts 193°
2026-04-19 09:39 50.04453 8.56856 369 ft 11 kts 191°
2026-04-19 09:39 50.04384 8.56838 369 ft 5 kts 190°
2026-04-19 09:40 50.04379 8.56837 366 ft 0 kts 191°
2026-04-19 09:40 50.04354 8.56829 367 ft 7 kts 191°
2026-04-19 09:40 50.04308 8.56827 368 ft 7 kts 162°
2026-04-19 09:41 50.04281 8.56893 369 ft 10 kts 94°
2026-04-19 09:41 50.04302 8.57013 370 ft 12 kts 70°
2026-04-19 09:41 50.04337 8.57159 369 ft 19 kts 69°
2026-04-19 09:41 50.04386 8.57362 370 ft 20 kts 69°
2026-04-19 09:42 50.04434 8.57565 371 ft 20 kts 70°
2026-04-19 09:42 50.04482 8.57766 372 ft 20 kts 69°
2026-04-19 09:42 50.04529 8.57961 374 ft 19 kts 69°
2026-04-19 09:42 50.04574 8.58152 372 ft 19 kts 70°
2026-04-19 09:43 50.04620 8.58343 375 ft 19 kts 70°
2026-04-19 09:43 50.04647 8.58456 377 ft 10 kts 69°
2026-04-19 09:43 50.04642 8.58554 376 ft 10 kts 133°
2026-04-19 09:43 50.04580 8.58596 378 ft 10 kts 159°
2026-04-19 09:44 50.04516 8.58629 379 ft 10 kts 178°
2026-04-19 09:44 50.04485 8.58574 375 ft 1 kts 249°
2026-04-19 09:45 50.04473 8.58526 377 ft 18 kts 249°
2026-04-19 09:45 50.04367 8.58075 372 ft 82 kts 251°
2026-04-19 09:46 50.04070 8.56845 369 ft 158 kts 249°
2026-04-19 09:46 50.03616 8.55094 954 ft 175 kts 253°
2026-04-19 09:46 50.03176 8.53320 1855 ft 188 kts 255°
2026-04-19 09:46 50.02741 8.51360 2255 ft 192 kts 264°
2026-04-19 09:47 50.02768 8.49283 2442 ft 198 kts 283°
2026-04-19 09:47 50.02941 8.47042 2613 ft 219 kts 279°
2026-04-19 09:47 50.03041 8.45430 2774 ft 232 kts 278°
2026-04-19 09:47 50.02787 8.41987 3265 ft 250 kts 261°
2026-04-19 09:48 50.02539 8.40227 3666 ft 251 kts 262°
2026-04-19 09:48 50.02208 8.37536 4375 ft 253 kts 263°
2026-04-19 09:48 50.01885 8.34829 5053 ft 256 kts 262°
2026-04-19 09:48 50.01557 8.32093 5796 ft 256 kts 262°
2026-04-19 09:49 50.01256 8.29361 6467 ft 252 kts 268°
2026-04-19 09:49 50.01546 8.26729 6811 ft 254 kts 295°
2026-04-19 09:49 50.02326 8.24240 7235 ft 258 kts 295°
2026-04-19 09:49 50.03066 8.21703 7972 ft 255 kts 295°
2026-04-19 09:50 50.03796 8.19173 8732 ft 255 kts 294°
2026-04-19 09:50 50.04526 8.16661 9343 ft 258 kts 296°
2026-04-19 09:50 50.05605 8.14440 9774 ft 263 kts 320°
2026-04-19 09:50 50.07123 8.12795 10209 ft 268 kts 322°
2026-04-19 09:51 50.08684 8.11075 10523 ft 284 kts 321°
2026-04-19 09:51 50.10349 8.09199 10688 ft 305 kts 321°
2026-04-19 09:51 50.12124 8.07180 10849 ft 326 kts 321°
2026-04-19 09:51 50.13982 8.05051 11171 ft 342 kts 321°
2026-04-19 09:52 50.15929 8.02813 11770 ft 350 kts 321°
2026-04-19 09:52 50.17904 8.00538 12507 ft 354 kts 320°
2026-04-19 09:52 50.19891 7.98240 13362 ft 356 kts 320°
2026-04-19 09:52 50.21888 7.95924 14153 ft 358 kts 320°
2026-04-19 09:53 50.23900 7.93584 14814 ft 363 kts 319°
2026-04-19 09:53 50.25917 7.91232 15461 ft 367 kts 319°
2026-04-19 09:53 50.27971 7.88835 16135 ft 370 kts 319°
2026-04-19 09:53 50.30046 7.86412 16781 ft 374 kts 319°
2026-04-19 09:54 50.32146 7.83955 17472 ft 375 kts 319°
2026-04-19 09:54 50.34221 7.81527 18425 ft 371 kts 319°
2026-04-19 09:54 50.36294 7.79097 18987 ft 375 kts 319°
2026-04-19 09:54 50.38395 7.76630 19492 ft 379 kts 319°
2026-04-19 09:55 50.40507 7.74146 19932 ft 386 kts 319°
2026-04-19 09:55 50.42673 7.71595 20410 ft 390 kts 319°
2026-04-19 09:55 50.44850 7.69031 21035 ft 391 kts 319°
2026-04-19 09:55 50.47026 7.66466 21658 ft 391 kts 319°
2026-04-19 09:56 50.49219 7.63877 22194 ft 394 kts 319°
2026-04-19 09:56 50.51393 7.61307 22706 ft 397 kts 319°
2026-04-19 09:56 50.53612 7.58680 23233 ft 400 kts 319°
2026-04-19 09:56 50.55845 7.56034 23748 ft 402 kts 319°
2026-04-19 09:57 50.58096 7.53363 24193 ft 405 kts 319°
2026-04-19 09:57 50.60337 7.50699 24591 ft 409 kts 319°
2026-04-19 09:57 50.62622 7.47982 24980 ft 412 kts 319°
2026-04-19 09:57 50.64916 7.45252 25461 ft 414 kts 319°
2026-04-19 09:58 50.67206 7.42522 25746 ft 420 kts 319°
2026-04-19 09:58 50.69553 7.39720 26099 ft 424 kts 319°
2026-04-19 09:58 50.71898 7.36868 26482 ft 425 kts 317°
2026-04-19 09:58 50.74069 7.33687 26877 ft 425 kts 311°
2026-04-19 09:59 50.76061 7.30225 27253 ft 427 kts 307°
2026-04-19 09:59 50.77847 7.26463 27584 ft 428 kts 303°
2026-04-19 09:59 50.79547 7.22585 27923 ft 431 kts 303°
2026-04-19 09:59 50.81242 7.18727 28232 ft 433 kts 303°
2026-04-19 10:00 50.82978 7.14798 28538 ft 436 kts 303°
2026-04-19 10:00 50.84729 7.10846 28857 ft 438 kts 303°
2026-04-19 10:00 50.86469 7.06925 29134 ft 440 kts 303°
2026-04-19 10:00 50.88230 7.02954 29562 ft 438 kts 303°
2026-04-19 10:01 50.89978 6.99004 29980 ft 437 kts 303°
2026-04-19 10:01 50.91726 6.95060 30268 ft 438 kts 303°
2026-04-19 10:01 50.93483 6.91098 30478 ft 440 kts 303°
2026-04-19 10:01 50.95250 6.87109 30701 ft 441 kts 303°
2026-04-19 10:02 50.97019 6.83111 30957 ft 442 kts 303°
2026-04-19 10:02 50.98784 6.79113 31219 ft 442 kts 303°
2026-04-19 10:02 51.00548 6.75111 31462 ft 443 kts 303°
2026-04-19 10:02 51.02312 6.71103 31712 ft 443 kts 303°
2026-04-19 10:03 51.04057 6.67129 31948 ft 444 kts 303°
2026-04-19 10:03 51.05823 6.63105 32195 ft 444 kts 303°
2026-04-19 10:03 51.07585 6.59084 32635 ft 440 kts 303°
2026-04-19 10:03 51.09340 6.55071 32900 ft 440 kts 303°
2026-04-19 10:04 51.11064 6.51101 33093 ft 442 kts 303°
2026-04-19 10:04 51.12819 6.47045 33297 ft 443 kts 303°
2026-04-19 10:04 51.14568 6.42992 33554 ft 443 kts 303°
2026-04-19 10:04 51.16318 6.38934 33821 ft 444 kts 303°
2026-04-19 10:05 51.18074 6.34856 33962 ft 447 kts 303°
2026-04-19 10:05 51.19810 6.30820 34165 ft 447 kts 303°
2026-04-19 10:05 51.21572 6.26719 34401 ft 447 kts 303°
2026-04-19 10:05 51.23332 6.22615 34612 ft 447 kts 303°
2026-04-19 10:06 51.25087 6.18519 34828 ft 447 kts 303°
2026-04-19 10:06 51.26836 6.14430 35143 ft 444 kts 303°
2026-04-19 10:06 51.28571 6.10339 35323 ft 445 kts 302°
2026-04-19 10:06 51.30271 6.06201 35475 ft 446 kts 302°
2026-04-19 10:07 51.31959 6.02029 35624 ft 447 kts 302°
2026-04-19 10:07 51.33649 5.97857 35821 ft 447 kts 302°
2026-04-19 10:07 51.35345 5.93686 35983 ft 447 kts 302°
2026-04-19 10:07 51.37062 5.89531 36148 ft 448 kts 304°
2026-04-19 10:08 51.38959 5.85561 36289 ft 450 kts 309°
2026-04-19 10:08 51.41089 5.81884 36458 ft 451 kts 312°
2026-04-19 10:08 51.43248 5.78294 36625 ft 451 kts 312°
2026-04-19 10:09 51.47624 5.70992 36928 ft 452 kts 312°
2026-04-19 10:09 51.49802 5.67332 37084 ft 452 kts 312°
2026-04-19 10:09 51.51947 5.63711 37245 ft 453 kts 312°
2026-04-19 10:09 51.54121 5.60028 37384 ft 454 kts 311°